Simultaneous Nadir Overpasses (SNOs) Predictions

Prediction of SNOs between NOAA-19 and TERRA Satellite Orbit:

Table of predicted SNOs for the next 14.0 days since TLE Epoch: 7/12/2016
Index Date (NOAA-19) Time (NOAA-19) Lat,Lon (NOAA-19) SZA (NOAA-19 ) Date (TERRA) Time (TERRA) Lat,Lon (TERRA) SZA (TERRA ) Distance(km) Time Diff (sec)
1 07/13/2016 23:49:27 -74.01, 9.82 127.63 07/13/2016 23:50:38 -73.99, 9.98 127.63 5.19 71
2 07/14/2016 00:40:31 73.86, 177.41 52.25 07/14/2016 00:40:06 73.85, 177.31 52.23 3.01 25
3 07/16/2016 05:23:34 73.94, 106.50 52.67 07/16/2016 05:24:21 73.96, 106.48 52.69 2.23 47
4 07/16/2016 06:14:28 -73.87, -86.06 127.39 07/16/2016 06:13:50 -73.90, -86.03 127.38 2.64 38
5 07/18/2016 10:57:31 -73.94,-156.93 126.95 07/18/2016 10:58:06 -73.95,-156.99 126.94 1.82 35
6 07/18/2016 11:48:36 73.88, 10.45 53.00 07/18/2016 11:47:33 73.85, 10.45 52.97 2.70 63
7 07/20/2016 16:31:39 73.97, -60.48 53.49 07/20/2016 16:31:48 73.95, -60.41 53.48 3.11 9
8 07/20/2016 17:22:31 -73.77, 107.29 126.69 07/20/2016 17:21:18 -73.84, 106.98 126.64 12.48 73
9 07/22/2016 21:14:49 74.40,-132.33 54.33 07/22/2016 21:15:58 74.29,-130.68 54.28 50.89 69
10 07/22/2016 22:05:36 -73.94, 36.16 126.09 07/22/2016 22:05:33 -73.93, 36.11 126.11 1.55 3
11 07/25/2016 02:48:39 -74.01, -34.75 125.56 07/25/2016 02:49:48 -74.01, -34.77 125.55 0.70 69
12 07/25/2016 03:39:42 73.92, 132.72 54.37 07/25/2016 03:39:15 73.92, 132.66 54.36 1.96 27
